Gaylord, MI

8:13 AM EDT on June 28, 2017 (GMT -0400)
Otsego County

Weather History for KGLR - December, 2012

Change the Weather History Date:

Monday, December 10, 2012

  Actual Average Record
Temperature  
Mean Temperature 22 °F -  
Max Temperature 25 °F 30 °F 53 °F (2015)
Min Temperature 19 °F 18 °F -10 °F (1958)
Degree Days  
Heating Degree Days 43    
Moisture  
Dew Point 20 °F    
Average Humidity 87    
Maximum Humidity 100    
Minimum Humidity 74    
Precipitation  
Precipitation 0.02 in - - ()
Sea Level Pressure  
Sea Level Pressure 29.69 in    
Wind  
Wind Speed 6 mph (NNE)    
Max Wind Speed 12 mph    
Max Gust Speed 16 mph    
Visibility 6 miles    
Events Snow    
Averages and records for this station are not official NWS values.
T = Trace of Precipitation, MM = Missing Value Source: NWS Daily Summary

Daily Weather History Graph

Daily Weather History Graph

Search for Another Location

Airport or City:

Trip Planner

Search our weather history database for the weather conditions in past years. The results will help you decide how hot, cold, wet, or windy it might be!

Date:

Astronomy

Dec. 10, 2012 Rise Set
Actual Time 8:06 AM EST 4:57 PM EST
Civil Twilight 7:32 AM EST 5:30 PM EST
Nautical Twilight 6:55 AM EST 6:07 PM EST
Astronomical Twilight 6:20 AM EST 6:43 PM EST
Moon 4:43 AM EST (12/10) 2:50 PM EST (12/10)
Length of Visible Light 9h 57m
Length of Day
8h 50m
Waning Crescent, 10% of the Moon is Illuminated
Dec 10
Waning Crescent
Dec 13
New
Dec 20
First Quarter
Dec 28
Full
Jan 4
Last Quarter

Hourly Weather History & Observations

Time (EST) Temp. Windchill Dew Point Humidity Pressure Visibility Wind Dir Wind Speed Gust Speed Precip Events Conditions
12:14 AM 24.8 °F 15.3 °F 23.0 °F 93% 29.67 in 5.0 mi NE 9.2 mph - 0.00 in   Overcast
12:25 AM 24.8 °F 16.1 °F 23.0 °F 93% 29.67 in 6.0 mi NE 8.1 mph - 0.00 in   Overcast
12:53 AM 25.0 °F 15.5 °F 24.1 °F 96% 29.70 in 10.0 mi NE 9.2 mph - 0.00 in   Overcast
1:53 AM 25.0 °F 14.2 °F 24.1 °F 96% 29.66 in 10.0 mi NE 11.5 mph 16.1 mph N/A   Overcast
2:53 AM 25.0 °F 16.3 °F 24.1 °F 96% 29.66 in 6.0 mi NE 8.1 mph - N/A   Overcast
3:37 AM 24.8 °F 16.1 °F 24.8 °F 100% 29.60 in 2.0 mi NE 8.1 mph - 0.00 in Snow Light Snow
3:53 AM 25.0 °F 18.1 °F 23.0 °F 92% 29.65 in 1.8 mi Variable 5.8 mph - 0.00 in Snow Light Snow
4:02 AM 24.8 °F 16.1 °F 23.0 °F 93% 29.59 in 2.0 mi NNE 8.1 mph - 0.00 in Snow Light Snow
4:53 AM 24.1 °F 16.0 °F 21.9 °F 91% 29.64 in 3.0 mi NE 6.9 mph - 0.00 in   Overcast
5:37 AM 24.8 °F 17.9 °F 23.0 °F 93% 29.58 in 4.0 mi NNE 5.8 mph - 0.01 in Snow Light Snow
5:53 AM 24.1 °F 18.2 °F 23.0 °F 96% 29.63 in 3.0 mi NE 4.6 mph - 0.01 in Snow Light Snow
6:24 AM 24.8 °F 17.9 °F 21.2 °F 86% 29.58 in 2.5 mi NNE 5.8 mph - 0.00 in Snow Light Snow
6:53 AM 24.1 °F 18.2 °F 21.9 °F 91% 29.64 in 5.0 mi North 4.6 mph - 0.00 in Snow Light Snow
7:00 AM 24.8 °F 19.1 °F 21.2 °F 86% 29.59 in 8.0 mi Variable 4.6 mph - 0.00 in   Overcast
7:53 AM 23.0 °F 18.4 °F 21.0 °F 92% 29.66 in 9.0 mi North 3.5 mph - 0.00 in   Overcast
8:13 AM 23.0 °F - 21.2 °F 93% 29.60 in 1.8 mi Calm Calm - 0.00 in Snow Light Snow
8:27 AM 23.0 °F - 21.2 °F 93% 29.61 in 1.2 mi Calm Calm - 0.01 in Snow Light Snow
8:53 AM 23.0 °F - 21.0 °F 92% 29.67 in 1.2 mi Calm Calm - 0.01 in Snow Light Snow
8:59 AM 23.0 °F - 21.2 °F 93% 29.61 in 3.0 mi Calm Calm - 0.00 in Snow Light Snow
9:29 AM 23.0 °F 17.0 °F 21.2 °F 93% 29.63 in 6.0 mi Variable 4.6 mph - 0.00 in Snow Light Snow
9:53 AM 24.1 °F 19.7 °F 21.0 °F 88% 29.69 in 5.0 mi WNW 3.5 mph - 0.00 in Snow Light Snow
10:18 AM 23.0 °F 15.8 °F 21.2 °F 93% 29.64 in 4.0 mi Variable 5.8 mph - 0.00 in Snow Light Snow
10:31 AM 23.0 °F 15.8 °F 19.4 °F 86% 29.63 in 4.0 mi Variable 5.8 mph - 0.00 in   Overcast
10:53 AM 23.0 °F 13.1 °F 19.0 °F 85% 29.70 in 7.0 mi NW 9.2 mph - 0.00 in   Overcast
11:53 AM 23.0 °F 13.9 °F 18.0 °F 81% 29.71 in 7.0 mi NNW 8.1 mph - 0.00 in   Overcast
12:53 PM 23.0 °F 18.4 °F 19.0 °F 85% 29.70 in 7.0 mi Variable 3.5 mph - N/A   Overcast
1:53 PM 23.0 °F 14.7 °F 17.1 °F 78% 29.70 in 10.0 mi Variable 6.9 mph 16.1 mph N/A   Overcast
2:11 PM 23.0 °F 13.1 °F 15.8 °F 74% 29.66 in 10.0 mi NNW 9.2 mph - N/A   Overcast
2:53 PM 23.0 °F 14.7 °F 16.0 °F 74% 29.73 in 10.0 mi Variable 6.9 mph - N/A   Overcast
3:53 PM 21.9 °F 14.5 °F 16.0 °F 78% 29.75 in 10.0 mi Variable 5.8 mph - N/A   Overcast
4:53 PM 21.0 °F 14.6 °F 15.1 °F 78% 29.77 in 10.0 mi Variable 4.6 mph - N/A   Overcast
5:53 PM 19.9 °F 14.9 °F 14.0 °F 78% 29.79 in 10.0 mi North 3.5 mph - N/A   Overcast
6:53 PM 19.9 °F 13.4 °F 14.0 °F 78% 29.83 in 10.0 mi North 4.6 mph - N/A   Overcast
7:53 PM 21.0 °F - 15.1 °F 78% 29.86 in 10.0 mi Calm Calm - N/A   Overcast
8:53 PM 19.9 °F 13.4 °F 15.1 °F 81% 29.87 in 10.0 mi North 4.6 mph - N/A   Overcast
9:53 PM 19.9 °F - 15.1 °F 81% 29.88 in 10.0 mi Calm Calm - N/A   Overcast
10:53 PM 19.9 °F 14.9 °F 15.1 °F 81% 29.89 in 10.0 mi Variable 3.5 mph - N/A   Overcast
11:53 PM 19.9 °F 14.9 °F 15.1 °F 81% 29.89 in 10.0 mi Variable 3.5 mph - N/A   Overcast